This demonstration page uses our WeatherBlox Daily Observations layout. Learn more.

Left ArrowRight Arrow

Hourly Observations for July 13, 2017

Temp ( °F °C ) Dew Point ( °F °C ) Humidity (%) Winds ( mph kmh ) Pressure ( in mb ) Visibility ( mi km ) Precip ( " mm )
12:15 am 00:15 Clear 69 20.8 61 16 74 74 NE 5 7 29.97 1015 10 16 0.00 0.00
12:35 am 00:35 Clear 70 21 60 15.6 71 71 ENE 8 13 29.97 1015 10 16 0.00 0.00
12:55 am 00:55 Clear 70 21.2 60 15.3 69 69 NE 7 11 30.00 1016 10 16 0.00 0.00
1:15 am 01:15 Clear 70 21 60 15.3 70 70 E 8 13 30.00 1016 10 16 0.00 0.00
1:35 am 01:35 Partly Cloudy 70 21.2 60 15.5 70 70 E 6 9 30.00 1016 10 16 0.00 0.00
1:55 am 01:55 Mostly Cloudy 70 21.3 60 15.5 70 70 SE 7 11 30.00 1016 10 16 0.00 0.00
2:20 am 02:20 Mostly Cloudy 70 21 62 16.6 76 76 ESE 5 7 30.06 1018 10 16 0.00 0.00
2:35 am 02:35 Mostly Cloudy with Nearby Thunderstorms 69 20.7 63 17 79 79 ESE 6 9 30.06 1018 10 16 0.00 0.00
2:55 am 02:55 Cloudy 69 20.7 63 17.4 81 81 SE 3 6 30.09 1019 10 16 0.00 0.00
3:15 am 03:15 Cloudy 69 20.6 64 17.7 84 84 Calm 30.06 1018 10 16 0.00 0.00
3:35 am 03:35 Cloudy 68 20.1 64 17.8 87 87 NNE 8 13 30.03 1017 10 16 0.00 0.00
3:55 am 03:55 Cloudy 68 20 64 17.9 88 88 NE 5 7 30.03 1017 10 16 0.00 0.00
4:15 am 04:15 Cloudy 68 19.8 64 18 89 89 Calm 30.03 1017 10 16 0.00 0.00
4:35 am 04:35 Cloudy with Light Rain 68 19.8 64 18 89 89 Calm 30.00 1016 10 16 0.00 0.00
4:55 am 04:55 Cloudy 67 19.6 64 18 91 91 N 5 7 30.00 1016 10 16 0.00 0.00
5:15 am 05:15 Cloudy with Light Rain 67 19.5 64 17.7 89 89 NNE 8 13 30.00 1016 10 16 0.00 0.00
5:35 am 05:35 Mostly Cloudy with Light Rain 67 19.5 64 18 91 91 N 12 19 29.97 1015 10 16 0.00 0.00
5:55 am 05:55 Partly Cloudy with Rain 67 19.7 64 18 90 90 N 9 15 29.97 1015 10 16 0.00 0.00
6:15 am 06:15 Partly Cloudy with Drizzle 67 19.6 64 18 91 91 E 5 7 29.97 1015 10 16 0.00 0.00
6:35 am 06:35 Partly Cloudy 67 19.5 65 18.1 92 92 SSW 9 15 30.00 1016 10 16 0.01 0.25
6:55 am 06:55 Mostly Cloudy 68 19.8 65 18.4 92 92 SW 6 9 30.03 1017 10 16 0.01 0.25
7:15 am 07:15 Cloudy 68 19.8 65 18.5 92 92 WNW 3 6 30.06 1018 7 11 0.00 0.00
7:35 am 07:35 Cloudy 68 19.8 65 18.5 92 92 NNW 6 9 30.06 1018 7 11 0.00 0.00
7:55 am 07:55 Cloudy 68 20.1 66 18.7 92 92 Calm 30.06 1018 10 16 0.00 0.00
8:15 am 08:15 Cloudy 69 20.5 66 18.7 89 89 E 3 6 30.06 1018 10 16 0.00 0.00
8:35 am 08:35 Partly Cloudy 69 20.8 66 19.1 90 90 E 7 11 30.06 1018 10 16 0.00 0.00
8:55 am 08:55 Sunny 70 21.2 67 19.2 88 88 ENE 8 13 30.03 1017 10 16 0.00 0.00
9:15 am 09:15 Sunny 71 21.6 67 19.3 87 87 ENE 8 13 30.03 1017 10 16 0.00 0.00
9:35 am 09:35 Sunny 72 22.3 66 19.1 82 82 ENE 10 17 30.03 1017 10 16 0.00 0.00
9:55 am 09:55 Partly Cloudy 73 22.5 66 18.7 79 79 E 9 15 30.06 1018 10 16 0.00 0.00
10:15 am 10:15 Partly Cloudy 74 23.1 64 17.6 71 71 ESE 3 6 30.06 1018 10 16 0.00 0.00
10:35 am 10:35 Partly Cloudy 74 23.6 63 17 67 67 SE 9 15 30.06 1018 10 16 0.00 0.00
10:55 am 10:55 Partly Cloudy 74 23.1 62 16.9 68 68 SE 10 17 30.09 1019 10 16 0.00 0.00
11:15 am 11:15 Sunny 74 23.6 62 16.6 65 65 ESE 8 13 30.09 1019 10 16 0.00 0.00
11:35 am 11:35 Sunny 75 24 63 17 65 65 Calm 30.09 1019 10 16 0.00 0.00
11:55 am 11:55 Sunny 76 24.6 62 16.9 62 62 E 6 9 30.09 1019 10 16 0.00 0.00
12:15 pm 12:15 Sunny 78 25.5 62 16.9 59 59 SSE 7 11 30.06 1018 10 16 0.00 0.00
12:35 pm 12:35 Sunny 78 25.6 62 16.6 58 58 SSE 6 9 30.06 1018 10 16 0.00 0.00
12:55 pm 12:55 Sunny 78 25.7 62 16.7 58 58 SE 5 7 30.06 1018 10 16 0.00 0.00
1:15 pm 13:15 Sunny 78 25.6 63 17 59 59 ESE 6 9 30.06 1018 10 16 0.00 0.00
1:35 pm 13:35 Sunny 80 26.4 63 17.3 57 57 SE 7 11 30.06 1018 10 16 0.00 0.00
1:55 pm 13:55 Sunny 80 26.6 64 17.9 59 59 ESE 7 11 30.06 1018 10 16 0.00 0.00
2:15 pm 14:15 Sunny 80 26.8 64 17.9 58 58 E 7 11 30.03 1017 10 16 0.00 0.00
2:35 pm 14:35 Sunny 80 26.9 65 18.2 59 59 E 7 11 30.03 1017 10 16 0.00 0.00
2:55 pm 14:55 Sunny 81 27.1 65 18.1 58 58 ESE 7 11 30.03 1017 10 16 0.00 0.00
3:15 pm 15:15 Sunny 81 27.1 65 18.2 58 58 S 3 6 30.03 1017 10 16 0.00 0.00
3:35 pm 15:35 Partly Cloudy 81 27.2 64 17.9 57 57 E 5 7 30.03 1017 10 16 0.00 0.00
3:55 pm 15:55 Sunny 82 27.7 65 18.5 57 57 ESE 6 9 30.03 1017 10 16 0.00 0.00
4:15 pm 16:15 Sunny 83 28.1 64 18 54 54 Calm 30.03 1017 10 16 0.00 0.00
4:35 pm 16:35 Sunny 83 28.2 65 18.2 55 55 ESE 5 7 29.97 1015 10 16 0.00 0.00
4:55 pm 16:55 Sunny 83 28.3 62 16.6 49 49 Calm 29.97 1015 10 16 0.00 0.00
5:15 pm 17:15 Partly Cloudy 82 28 65 18.3 56 56 E 3 6 30.00 1016 10 16 0.00 0.00
5:35 pm 17:35 Sunny 83 28.2 64 18 54 54 Calm 29.97 1015 7 11 0.00 0.00
5:55 pm 17:55 Sunny 83 28.2 65 18.1 54 54 Calm 29.94 1014 10 16 0.00 0.00
6:15 pm 18:15 Sunny 83 28.2 66 19 57 57 E 5 7 29.94 1014 7 11 0.00 0.00
6:35 pm 18:35 Sunny 82 28 66 18.9 58 58 ESE 7 11 29.94 1014 10 16 0.00 0.00
6:55 pm 18:55 Hazy 82 28 66 19 58 58 ESE 8 13 29.94 1014 5 8 0.00 0.00
7:15 pm 19:15 Hazy 81 27.1 68 19.9 65 65 SE 8 13 29.97 1015 5 8 0.00 0.00
7:35 pm 19:35 Hazy 81 27.3 68 20.2 65 65 ESE 7 11 29.97 1015 5 8 0.00 0.00
7:55 pm 19:55 Hazy 80 26.8 69 20.4 68 68 SE 8 13 29.97 1015 5 8 0.00 0.00
8:15 pm 20:15 Hazy 80 26.5 68 20.1 68 68 SE 8 13 29.97 1015 4 6 0.00 0.00
8:35 pm 20:35 Hazy 79 26.1 68 20.1 70 70 SE 9 15 30.00 1016 4 6 0.00 0.00
8:55 pm 20:55 Hazy 78 25.6 69 20.3 73 73 SE 7 11 30.00 1016 3 5 0.00 0.00
9:15 pm 21:15 Hazy 77 25 69 20.5 76 76 SE 6 9 30.00 1016 5 8 0.00 0.00
9:35 pm 21:35 Clear 75 24.1 69 20.5 80 80 SSE 5 7 30.06 1018 10 16 0.00 0.00
9:55 pm 21:55 Clear 75 23.7 69 20.5 82 82 SE 5 7 30.06 1018 10 16 0.00 0.00
10:15 pm 22:15 Clear 75 24 69 20.3 80 80 SE 6 9 30.06 1018 10 16 0.00 0.00
10:35 pm 22:35 Partly Cloudy 74 23.5 69 20.5 83 83 SE 7 11 30.06 1018 10 16 0.00 0.00
10:55 pm 22:55 Partly Cloudy 74 23.5 69 20.5 83 83 SE 3 6 30.09 1019 10 16 0.00 0.00
11:15 pm 23:15 Clear 73 23 69 20.5 86 86 SE 5 7 30.09 1019 10 16 0.00 0.00
11:35 pm 23:35 Clear 74 23.1 69 20.5 85 85 SE 5 7 30.09 1019 10 16 0.00 0.00
11:55 pm 23:55 Clear 73 22.7 68 20.2 86 86 SE 5 7 30.09 1019 10 16 0.00 0.00

Powered by AerisWeather